Terminal Aerodrome Forecast
Issued by NWS

Home | Current Version | Previous Version | Graphics & Text | Print | Product List | Glossary On
Versions: 1 2 3 4 5 6 7 8 9 10 11 12 13 14 15 16 17 18 19 20 21 22 23 24 25 26 27 28 29 30 31 32
000
FTUS43 KLOT 151600 AAB
TAFORD
TAF AMD
KORD 151609Z 1516/1618 34012KT P6SM BKN050
     FM152000 29008KT P6SM BKN050
     FM160000 VRB04KT P6SM SCT150
     FM160900 16008KT P6SM SCT100
     FM161400 17016G25KT P6SM BKN150=

USA.gov is the U.S. government's official web portal to all federal, state and local government web resources and services.